Regional Weather Roundup
Issued by NWS

Home | Current Version | Previous Version | Graphics & Text | Print | Product List | Glossary On
Versions: 1 2 3 4 5 6 7 8 9 10 11 12 13 14 15 16 17 18 19 20 21 22 23 24 25 26 27 28 29 30 31 32 33 34 35 36 37 38 39 40 41 42 43 44 45 46 47 48 49 50
255
ASUS43 KDTX 161410
RWRMI
MICHIGAN HOURLY REGIONAL WEATHER ROUNDUP
NATIONAL WEATHER SERVICE DETROIT/PONTIAC MI
1000 AM EDT TUE JUL 16 2019

NOTE: "FAIR" INDICATES FEW OR NO CLOUDS BELOW 12,000 FEET WITH NO
SIGNIFICANT WEATHER AND/OR OBSTRUCTION TO VISIBILITY.

MIZ047>049-052>055-059>063-066>070-074>076-081>083-161500-
SOUTHEAST LOWER MICHIGAN

CITY           SKY/WX    TMP DP  RH WIND       PRES   REMARKS
ADRIAN         CLOUDY    77  67  71 SW12      30.02R
ALMA           CLOUDY    79  68  68 SW7       29.97R
ANN ARBOR      CLOUDY    77  70  79 SW8       30.00S
BAD AXE        CLOUDY    78  66  66 SW13      29.96S
CARO           CLOUDY    78  67  70 SW10      29.97S
DETROIT CITY   FAIR      80  70  71 SW12      29.99F
DETROIT        DRIZZLE   78  69  73 SW13      30.00S
FLINT          PTSUNNY   80  67  64 SW9G17    29.99R
GROSSE ILE     FAIR      79  70  73 SW10      30.00S
HILLSDALE      DRIZZLE   74  69  82 SW8       30.02R
HOWELL         PTSUNNY   78  66  66 S13G21    30.00R

CITY           SKY/WX    TMP DP  RH WIND       PRES   REMARKS
JACKSON        CLOUDY    77  71  82 S8        29.99F
LAMBERTVILLE   PTSUNNY  N/A N/A N/A SW6       30.01R
LANSING        CLOUDY    77  67  71 SW14      29.99R
LAPEER         FAIR      79  66  64 SW12G17   30.00R
MASON          CLOUDY    74  69  81 SW5       30.00R
MONROE         PTSUNNY   80  72  76 SW7       30.00S
MT. CLEMENS    PTSUNNY   82  72  71 S10G17    29.98S
PONTIAC        PTSUNNY   78  68  71 SW13G20   29.98S
PORT HOPE        N/A     79  66  64 W10G18    29.94R
PORT HURON     FAIR      81  68  65 S5        29.99S
TRI CITIES     PTSUNNY   79  69  71 SW16      29.96R
MIDLAND        CLOUDY    79  67  67 W9G16     29.95S
TROY           PTSUNNY   78  68  71 SW9       30.01S
SAGINAW HB     PTSUNNY   81  68  65 SW10      29.96S
$$
MIZ043>046-050>051-056>058-064>065-071>073-077>080-161500-
SOUTHWEST LOWER MICHIGAN

CITY           SKY/WX    TMP DP  RH WIND       PRES   REMARKS
BATTLE CREEK   LGT RAIN  74  71  91 S10       29.99S
BENTON HARBOR  FAIR      75  70  84 S8        29.96S
BIG RAPIDS     CLOUDY    76  67  75 W7        29.95F HAZE
COLDWATER      LGT RAIN  76  70  83 S6        30.01R
FREMONT        CLOUDY    74  68  82 SW7       29.95F
HOLLAND        CLOUDY    77  70  79 SW12      29.97R
GRAND RAPIDS   CLOUDY    76  69  79 SW10      29.98R
IONIA          CLOUDY    79  66  65 SW12      29.97S
KALAMAZOO      LGT RAIN  75  70  84 S12       29.98S
LUDINGTON      FAIR      74  67  79 SW13      29.93F
MARSHALL       CLOUDY    77  74  93 SW8       29.99S
MOUNT PLEASANT CLOUDY    76  67  74 W10       29.95F
MUSKEGON       CLOUDY    76  68  76 S14G22    29.95F
SOUTH HAVEN    FAIR      75  73  92 S6        29.97R
$$
MIZ016>042-161500-
NORTHERN LOWER MICHIGAN

CITY           SKY/WX    TMP DP  RH WIND       PRES   REMARKS
ALPENA         FAIR      76  66  71 SW8G18    29.89S
BEAVER ISLAND  FAIR      71  64  79 SW14G24   29.85S
BELLAIRE       FAIR      79  67  67 SW7       29.88F
CADILLAC       CLOUDY    77  65  65 SW16G22   29.94R
CHARLEVOIX     CLOUDY    78  67  70 S10       29.89F
FRANKFORT      FAIR      76  64  65 S9        29.90S
GAYLORD        FAIR      73  64  73 SW17      29.91S
GRAYLING       FAIR      76  66  69 W16G23    29.91F
HARBOR SPRINGS CLOUDY    75  69  81 SW6       29.86F
MANISTEE       CLOUDY    77  67  71 SW10      29.91S
OSCODA         FAIR      80  64  58 SW15G21   29.92S
PELLSTON       PTSUNNY   77  67  71 SW8       29.86S
ROGERS CITY    PTSUNNY   75  67  77 SW9       29.88R
TRAVERSE CITY  PTSUNNY   78  67  68 SW12G20   29.87F
$$
MIZ007>008-015-161500-
EASTERN UPPER MICHIGAN

CITY           SKY/WX    TMP DP  RH WIND       PRES   REMARKS
KINROSS        FAIR      74  67  78 SW8G17    29.83F
MACKINAC ISLAN CLOUDY    72  68  87 SW10      29.84F
NEWBERRY       FAIR      73  71  92 SW8       29.82S
S. S. MARIE    CLOUDY    72  66  81 SW7       29.82F
MUNISING         N/A     75  68  78 VRB5      29.80R
$$
MIZ004>006-011>014-085-161500-
CENTRAL UPPER MICHIGAN

CITY           SKY/WX    TMP DP  RH WIND       PRES   REMARKS
MANISTIQUE     FAIR      70  67  90 SW8       29.83R
ESCANABA       FAIR      75  67  76 SW12      29.83R
MENOMINEE      FAIR      75  67  76 W10       29.86S
SAWYER-GWINN   MOSUNNY   73  66  78 W9        29.82S
$$
MIZ001>003-009>011-084-161500-
WESTERN UPPER MICHIGAN

CITY           SKY/WX    TMP DP  RH WIND       PRES   REMARKS
IRON MOUNTAIN  PTSUNNY   73  65  75 NW7       29.84R
HOUGHTON       FAIR      74  66  76 W16       29.81S
COPPER HARBOR    N/A     67  62  84 N15       29.77R
IRONWOOD       FAIR      73  66  78 W8        29.87R
$$

ABBREVIATIONS USED IN REMARKS
   TC - TEMPERATURE IN CELSIUS
  WCI - WIND CHILL INDEX
   HX - HEAT INDEX
  VSB - VISIBILITY





USA.gov is the U.S. government's official web portal to all federal, state and local government web resources and services.